CZ-3C DEB, 40856

Orbit data source: Space-Track

CZ-3C DEB, 40856 is space debris in HEO originally from a launch on Fri, 24 Feb 2012 UTC launched from the Xichang Space Center, China (XSC). Debris objects in space refer to the collection of defunct objects orbiting the Earth. Examples of debris include non-operational satellites, rocket bodies, and fragments generated from explosions, collisions, or faulty payload assembly.

Loading next visibility...
Identifier
40856, 2012-008W
Orbit
HEO
Country
Flag of CNCN / PRC
Related business
Manufacturer
CALT
Mission
Spacecraft
Bus & Motor
Unknown
Mass
Unknown
Launch date (UTC)
2012-02-24 (14 years ago)
Launch vehicle
Unknown
Launch site
Xichang Space Center, China (XSC)
Object type
Payload
Rocket body
Debris
Shape & HBR
Unknown shape, 0.1 m
Radar Cross Section
Medium (>0.1 m² and <1 m²)

Expand to show TLE details & history
Last TLE update: 1 day ago

TLE from 1 day ago
0 CZ-3C DEB
1 40856U 12008W   25293.43858425 -.00000150  00000-0  10776-2 0  9994
2 40856  21.9617   4.3079 7061995 195.4446 119.7793  2.35428364 93550
Epoch: 2025-10-20T10:31Z
TLE epoch observation values (Epoch: 2025-10-20T10:31:33.679Z)
Latitude
0.00002°
Longitude
177.27261°
Altitude
31,098.277 km
Speed
2.138 km/s
True Right ascension
00h 17m 12s
True Declination
0° 00' 00"
Sunlit
Object was in daylight at epoch
Visualization orbit readout
Latitude
Unknown
Longitude
Unknown
Altitude
Unknown
Speed
Unknown
Apparent Right ascension
Unknown
Apparent Declination
Unknown
Sunlit
N/A
Visualization observer readout
Local Sidereal Time
06:02:48
Azimuth
Unknown
Elevation
Unknown
Doppler factor
Unknown
Orbital elements
Apogee altitude
34,353.714 km
Perigee altitude
635.719 km
Semi-major axis
23,872.854 km
Eccentricity
0.7062
Inclination
21.9617°
RAAN
4.3079°
Arg. of periapsis
195.4446°
True anomaly
164.51657°
Mean anomaly
119.7793°
Eccentric anomaly
143.72134°
Mean motion
0.58842 °/min
Orbital period
611.81 mins
BSTAR
0.0010776
Loading maneuver chart data...
Computing Atmospheric mass density...
Loading historical data...
Loading historical data...
Loading historical data...
Loading historical data...
Loading historical data...
Loading historical data...
Loading historical data...

Documentation

Showing up to 5 results
|